Location: Frankfurt+(oder)
(51.7984°N, 12.2168°E)
Time: 14:48:09
(UTC+02:00)

ISS - Pass Details

Date: 21 March 2017
Orbit: 399 x 409 km, 51.6° (Epoch: 30 March)

Event Time Altitude Azimuth Distance (km) Brightness Sun altitude
Exits shadow 04:36:20 28° 211° (SSW) 796 -2.8 -15.2°
Maximum altitude 04:36:21 28° 210° (SSW) 796 -2.8 -15.2°
Drops below altitude 10° 04:39:14 10° 149° (SSE) 1,473 -0.9 -14.8°
Sets 04:41:29 0° 138° (SE) 2,331 0.3 -14.5°
